This demonstration page uses our WeatherBlox Daily Observations layout. Learn more.

Left ArrowRight Arrow

40.97296, -117.73568

Hourly Observations for August 2, 2022

Temp ( °F °C ) Dew Point ( °F °C ) Humidity (%) Winds ( mph kmh ) Pressure ( in mb ) Visibility ( mi km ) Precip ( " mm )
12:56 am 00:56 Clear 72 22.2 56 13.3 57 57 Calm 29.92 1013 10 16 0.00 0.00
1:56 am 01:56 Partly Cloudy 72 22.2 56 13.3 57 57 Calm 29.92 1013 9 14 0.00 0.00
2:56 am 02:56 Partly Cloudy 73 22.8 52 11.1 48 48 S 3 6 29.93 1014 7 11 0.00 0.00
3:56 am 03:56 Mostly Clear 73 22.8 52 11.1 48 48 SSW 5 7 29.96 1015 8 13 0.00 0.00
4:56 am 04:56 Clear 71 21.7 53 11.7 53 53 S 3 6 29.98 1015 10 16 0.00 0.00
5:56 am 05:56 Cloudy 72 22.2 52 11.1 50 50 Calm 29.98 1015 9 14 0.00 0.00
6:56 am 06:56 Mostly Cloudy 73 22.8 53 11.7 50 50 Calm 30.00 1016 8 13 0.00 0.00
7:56 am 07:56 Partly Cloudy 75 23.9 51 10.6 43 43 Calm 30.01 1016 9 14 0.00 0.00
8:56 am 08:56 Mostly Sunny 77 25 52 11.1 42 42 SSW 3 6 30.01 1016 10 16 0.00 0.00
9:56 am 09:56 Sunny 81 27.2 52 11.1 37 37 VRB 3 6 30.01 1016 10 16 0.00 0.00
10:56 am 10:56 Mostly Cloudy 82 27.8 51 10.6 34 34 E 3 6 30.01 1016 10 16 0.00 0.00
11:56 am 11:56 Sunny 86 30 52 11.1 31 31 ESE 8 13 29.99 1016 10 16 0.00 0.00
12:56 pm 12:56 Mostly Sunny 88 31.1 50 10 27 27 Calm 29.98 1015 10 16 0.00 0.00
1:56 pm 13:56 Mostly Cloudy 90 32.2 50 10 25 25 W 8 13 29.96 1014 10 16 0.00 0.00
2:56 pm 14:56 Mostly Sunny 92 33.3 49 9.4 23 23 WSW 9 15 29.93 1014 10 16 0.00 0.00
3:56 pm 15:56 Sunny 93 33.9 49 9.4 22 22 VRB 3 6 29.91 1013 10 16 0.00 0.00
4:56 pm 16:56 Sunny 93 33.9 48 8.9 21 21 VRB 5 7 29.89 1012 10 16 0.00 0.00
5:56 pm 17:56 Partly Cloudy 93 33.9 46 7.8 20 20 VRB 5 7 29.88 1012 10 16 0.00 0.00
6:36 pm 18:36 Hazy 86 30 56 13.3 36 36 N 25 41 29.71 1006 5 8 0.00 0.00
6:56 pm 18:56 Sunny 84 28.9 55 12.8 37 37 N 25 41 29.91 1013 9 14 0.00 0.00
7:56 pm 19:56 Mostly Cloudy 82 27.8 54 12.2 38 38 N 10 17 29.95 1014 10 16 0.00 0.00
8:56 pm 20:56 Clear 80 26.7 54 12.2 41 41 NNE 8 13 29.96 1014 10 16 0.00 0.00
9:56 pm 21:56 Clear 74 23.3 54 12.2 50 50 NW 7 11 29.98 1015 10 16 0.00 0.00
10:56 pm 22:56 Clear 72 22.2 54 12.2 53 53 NNW 9 15 29.99 1016 10 16 0.00 0.00
11:56 pm 23:56 Clear 70 21.1 54 12.2 57 57 NNW 7 11 29.99 1016 10 16 0.00 0.00

Powered by AerisWeather